Location: *
(50.3440°N, 18.6237°E)
Time: 16:25:01
(UTC+00:00)

Cosmos 1943 - Pass Details

Date: 30 November 2020
Orbit: 832 x 851 km, 71.0° (Epoch: 17 January)

Event Time Altitude Azimuth Distance (km) Brightness Sun altitude
Rises 16:23:28 0° 172° (S) 3,380 6.4 -14.9°
Reaches altitude 10° 16:26:11 10° 161° (SSE) 2,454 5.6 -15.3°
Maximum altitude 16:30:54 28° 104° (ESE) 1,528 4.1 -16.1°
Enters shadow 16:32:15 26° 81° (E) 1,628 4.1 -16.3°
